Reflectivity
-20 -20 -20 -20 -20 -20 -20 -20 -20 -20 -20 -20 -20 -20 -20 -20 -20 -20 -20 -20 -20 -20 -20 -20 -20 -20 -20 -20 -20 -20 -20 -20 -20 -3 -20 -20 -20 -20 -20 -3 14 8 -19 9 12
-20 -20 -20 -20 -20 -20 -20 -20 -20 -20 10 -20 -20 -20 -20 -20 -20 -20 -20 -20 -20 -20 -20 -20 -20 -20 -20 -20 -20 -20 -20 -20 -3 -19 -20 -20 -20 -20 -19 14 27 8 24 10 15
8 -20 -20 -20 -20 -20 -20 -20 -20 -20 -3 -20 -20 -20 -20 -20 -20 -20 -20 -20 -20 -20 -20 -20 -20 -20 -20 -20 -20 -20 -20 -20 -20 -20 -20 -20 -20 -20 15 34 5 -20 -20 21 13
-2 -20 -20 -20 -20 -20 -20 -20 -20 -20 -20 -20 -20 -20 -20 -20 -20 -20 -20 -20 -20 -20 -20 -20 -20 -20 -20 -20 -20 -20 -20 -20 -20 -20 -20 -20 -20 -20 12 32 -19 -20 -18 -17 -20
-2 -20 -20 -20 -20 -20 -20 -20 -20 -20 -20 -20 -20 -20 -20 -20 -20 -20 -20 -20 -20 -20 -20 -20 -20 -20 -20 -20 -20 -20 -20 -20 -20 -20 -20 -20 -20 -20 5 18 -20 -20 1 -20 -17
3 -20 -20 -20 -20 -20 -20 -20 -20 -20 -20 -20 -20 -20 -20 -20 -20 -20 -20 -20 -20 -20 -20 -20 -20 -20 -20 -20 -20 -20 -20 -20 -20 -20 -20 -20 0 -20 3 -18 -20 -20 -14 -20 12
-20 2 -14 -20 -20 -20 -20 -20 -20 -20 -20 -20 -20 -12 -20 -20 -20 -20 -20 -20 -20 -20 -20 -20 -20 -20 -20 -20 -20 -20 -20 -20 -20 -20 -20 -20 -20 -8 -20 -20 -20 -20 -20 -20 10
9 -13 -1 -20 -20 -20 -20 -20 -20 -20 -20 -20 -20 -20 -20 -20 -20 -20 -20 -20 -20 -20 -20 -20 -20 -20 -20 -20 -20 -20 -20 -20 -20 -19 -20 -20 -20 27 -20 -20 -14 -20 -15 -20 -20
-4 -20 -20 -7 -20 -20 -20 -20 -20 -20 -20 -19 -20 -20 -20 -20 -20 -20 -20 -20 -20 -20 -20 -20 -20 -20 -20 -20 -20 -20 -20 -20 -20 -9 -3 -20 -20 -20 -20 -20 -20 -20 -20 -20 -20
-14 -20 -20 -20 -20 -20 -20 -20 -20 -20 -20 -20 -20 -20 -20 -20 -20 -20 -20 -20 -20 -20 -20 -20 -20 -20 -20 -20 -20 -20 -20 -20 -20 -4 -20 -20 -20 -20 -20 -20 -20 -20 -20 -20 -20
-20 -15 -20 -2 -15 -10 -8 -11 -20 -20 -20 -20 -20 -20 -20 -20 -20 -20 -20 -20 -20 -20 -20 -20 -20 -20 -20 -20 -20 -20 -20 -20 -20 -6 -20 -20 -20 -20 -20 -20 -20 -20 -20 -14 -20
-8 -18 -20 -20 7 -3 -20 -20 -13 -17 -20 -20 -20 -20 -20 -20 -20 -20 -20 -20 -20 -20 -20 -20 -20 -20 -20 -20 -20 -20 -20 -20 -14 16 -20 -20 -20 -20 -20 -20 -20 -20 -20 -20 -20
-10 -20 -20 -20 -20 -19 -20 -20 -20 -20 -20 -20 -20 -20 -20 -20 -20 -20 -20 -20 -20 -20 -20 -20 -20 -20 -20 -20 -20 -20 -20 -20 -20 -20 -20 -20 -20 -20 -20 -20 -20 -20 -20 -20 -20
-14 -20 -20 -20 -20 -20 -20 -20 -20 -20 -20 -20 -20 -20 -20 -20 -20 -20 -20 -20 -20 -20 -20 -20 -20 -20 -20 -20 -20 -20 -20 -20 -20 -20 -20 -20 -20 -20 -20 -20 -20 -20 -20 -20 -20
-10 12 -20 -20 -20 -20 -20 -20 -20 -20 -20 -20 -20 -20 -20 -20 -20 -20 -20 -20 -20 -20 -20 -20 -20 -20 -20 -20 -20 -20 -20 -20 -20 -20 -20 -20 -20 -16 -20 23 -20 -20 -20 -20 -20
-16 8 9 -20 -20 -20 -20 -6 -20 -11 -20 -20 -20 -20 -20 -20 -20 -20 -20 -20 -20 -20 -20 -20 -20 -20 -20 -20 -20 -20 -20 -20 -20 -20 -20 -20 -20 -20 7 11 6 -20 -20 -20 -20
-2 11 16 -20 -20 -20 -20 -20 -20 -20 -20 -20 -20 -20 -20 -20 -20 -20 -20 -20 -20 -20 -20 -20 -20 -20 -20 -20 -20 -20 -20 -20 -20 -20 -20 -20 -20 -20 -19 -15 -20 -20 -20 -20 -20
21 18 14 -20 -20 -15 -6 -19 -0 -20 -20 -20 -20 -20 -20 -20 -20 -20 -20 -20 -20 -20 -20 -20 -20 -20 -20 -20 -20 -20 -20 -20 -20 -20 -20 -20 -20 -20 -9 -19 -20 -20 -20 -20 -20
21 17 14 -19 -20 -4 8 17 -20 -20 -20 -20 -20 -20 -20 -20 -20 -20 -20 -20 -20 -20 -20 -20 -20 -20 -20 -20 -20 -20 -20 -20 -20 -20 -20 -20 -14 -19 -12 -10 -20 -20 -20 -20 -20
14 13 -4 -20 -20 12 12 -2 -20 -20 -20 -20 -20 -20 -20 -20 -20 -20 -20 -20 -20 -20 -20 -20 -20 -16 -20 -20 -20 -20 -20 -20 -20 -11 -20 -20 -20 -11 10 15 -18 -20 -20 -20 -20
28 29 15 -20 17 15 16 -20 -20 -20 -20 -20 -20 -20 -20 -20 -19 4 -19 -20 -20 -20 -20 -20 -20 -20 -20 -20 -20 -20 -20 -20 -2 -13 -14 -20 -6 -3 -9 -20 -18 -20 -20 -20 -20
32 29 -5 -19 27 9 -10 -20 -20 -20 -20 -20 -20 -20 -20 -20 -20 -20 16 -20 -20 -20 -20 -20 -20 -20 -20 -20 -17 -20 -20 -20 -20 -20 -20 -20 -20 -20 -20 -20 -19 -14 -20 -20 -20
34 27 2 -20 -2 -1 -20 -20 -20 -20 -20 -20 -20 -20 -20 -20 -20 -20 -20 -17 -12 12 1 -20 -13 -20 -20 -20 -20 -20 -20 -20 -20 -20 -20 -20 -20 -3 -14 -20 6 -20 -20 -20 -20
34 27 29 17 -20 -19 -20 -20 -20 -20 -20 -20 -20 -20 -20 -20 -20 -20 -20 -12 10 6 -19 5 -6 -20 -20 -20 -20 -20 -20 -20 -20 -20 -20 -20 -20 -19 -20 13 -20 -20 -20 -20 -20
40 23 13 10 22 -10 -20 -20 -20 -18 -20 -20 -20 -20 -20 -20 -20 -20 -20 7 -16 -20 -10 -0 15 -17 -20 -20 -1 -16 -20 -20 -20 -20 -20 -20 -20 -20 -20 -20 -20 -20 -20 -20 -15
35 17 -3 -20 0 6 -0 -20 -20 -20 -20 -20 -20 -20 -20 -20 -20 -20 -20 -2 -3 12 -18 -3 -16 -20 -20 -20 -13 -14 -20 -20 -20 -20 -20 -20 -20 -20 -20 -8 -20 -19 4 -20 3
39 21 -18 -6 10 7 -17 -20 -20 -20 -20 -20 -20 -20 -20 -20 -20 -20 -20 -13 -15 3 28 -3 -20 -20 -20 -20 -20 -7 -20 -20 -20 -20 -20 -20 -20 -20 -20 -20 -4 -20 -20 -20 -20
Wind_Speed
10 12 13 13 13 14 14 14 13 13 14 15 17 19 20 22 25 7 7 9 8 9 4 4 5 8 10 7 6 3 3 8 15 5 1 6 6 6 10 4 8 8 4 5 8
11 13 13 14 13 13 14 14 14 14 16 15 16 19 21 21 10 13 10 9 10 10 3 6 6 9 5 7 5 3 3 11 10 5 6 13 9 6 6 17 1 3 4 5 9
13 12 13 14 14 14 14 14 15 15 18 15 16 18 22 19 7 5 4 9 9 8 3 4 8 6 7 5 11 9 7 10 8 5 8 6 8 6 8 2 8 7 7 9 10
11 14 15 14 14 14 14 14 15 16 15 16 16 17 23 2 6 0 6 5 8 6 3 5 7 5 5 8 9 4 5 7 7 4 5 10 4 11 9 12 8 8 8 7 9
14 12 13 14 15 13 14 15 16 16 15 16 16 15 10 4 12 6 8 6 4 5 5 8 8 7 9 6 8 4 6 7 9 5 4 14 16 9 13 4 4 8 7 9 12
12 13 15 12 14 15 15 16 17 17 16 15 15 13 3 11 7 9 8 5 7 6 7 11 9 8 6 8 6 7 5 7 9 8 4 7 7 5 6 12 7 7 4 9 11
12 13 13 15 12 15 17 18 18 18 17 16 14 5 8 21 8 4 6 6 7 8 9 11 10 2 6 8 7 13 8 7 13 3 3 8 5 5 4 11 7 9 6 8 11
12 12 13 13 14 13 16 20 20 20 19 16 10 4 11 10 11 15 18 15 11 10 14 10 5 4 2 7 9 8 7 4 12 9 2 7 1 3 6 6 12 10 8 10 8
12 12 11 12 14 15 16 21 25 23 18 12 4 5 12 10 6 11 11 12 11 11 6 8 1 3 6 3 6 5 10 11 11 7 6 4 5 6 5 8 12 11 11 10 9
12 12 12 13 13 14 16 24 28 11 8 7 7 5 8 6 5 6 9 11 9 6 5 5 2 4 4 3 7 10 6 3 1 4 5 4 7 5 4 8 16 13 12 13 13
11 10 11 13 12 12 10 9 3 2 5 10 10 8 14 10 15 6 8 8 12 6 9 6 4 10 12 13 16 14 13 8 6 9 7 12 7 12 7 1 15 13 10 15 15
12 8 9 12 12 9 4 5 8 4 11 13 19 22 23 15 15 19 11 8 10 11 7 8 15 13 16 17 15 13 10 7 8 2 3 6 16 10 9 7 10 15 12 9 13
11 8 8 11 11 6 9 13 14 14 6 16 24 16 20 12 22 22 9 15 7 11 10 13 11 19 19 18 14 14 5 6 3 5 7 6 0 10 11 11 13 15 16 14 17
12 8 7 10 5 5 5 4 12 4 6 10 10 11 13 14 11 26 16 15 10 17 14 12 17 20 20 16 9 6 8 5 4 2 4 2 5 12 19 19 19 18 17 18 17
11 10 8 7 9 5 8 14 18 2 7 10 5 5 9 18 7 16 24 9 18 18 9 16 7 14 16 11 6 10 6 4 2 6 4 8 3 10 17 15 20 19 19 20 22
13 11 10 3 4 8 14 15 5 2 14 7 6 6 6 18 14 5 15 14 7 14 16 15 13 15 15 10 8 7 3 2 3 1 4 7 1 6 12 9 16 19 20 20 22
15 14 10 5 4 5 9 5 2 10 7 7 5 9 6 6 17 18 9 11 12 15 17 16 19 18 9 6 5 6 3 1 3 4 7 9 3 8 9 10 22 20 20 21 21
16 14 9 8 7 4 4 1 11 7 19 5 3 10 10 8 11 13 16 15 16 11 6 13 14 16 10 12 10 9 8 7 4 3 4 7 4 7 12 8 6 10 22 19 20
17 5 5 7 8 2 4 12 12 9 13 16 17 13 9 9 7 13 15 15 12 18 14 9 19 8 16 6 8 5 5 8 8 2 3 4 9 9 13 6 6 7 9 15 16
5 5 7 11 7 3 5 21 16 11 18 17 13 7 6 3 7 7 9 10 17 20 20 5 6 16 17 9 9 10 4 3 2 5 2 6 6 7 1 6 2 6 7 4 8
6 4 7 12 7 5 15 18 18 17 18 9 12 13 16 14 7 11 9 10 9 18 20 17 13 10 2 4 6 4 7 4 7 6 5 2 5 7 7 3 3 7 9 8 6
4 6 10 13 9 7 24 14 13 9 18 17 9 9 13 15 11 14 4 9 8 10 19 16 5 12 18 5 8 12 11 9 6 5 3 6 7 3 8 6 6 9 7 8 7
5 3 7 12 13 18 18 26 23 20 15 9 14 12 12 16 9 6 5 10 16 6 13 9 14 9 8 8 5 10 7 6 5 5 8 7 7 6 3 8 9 9 1 5 8
6 7 5 13 12 22 20 21 24 10 22 25 19 15 23 20 15 7 4 6 15 11 22 16 10 14 18 5 6 8 9 13 12 5 6 7 5 2 8 6 8 4 4 5 7
6 6 8 16 24 18 18 7 23 19 17 11 15 25 20 12 16 9 5 6 8 14 12 6 11 11 15 13 13 11 16 15 14 15 11 6 8 8 11 11 6 6 1 3 5
7 8 8 5 14 23 21 27 26 16 16 18 22 21 16 18 20 14 6 3 1 9 7 10 6 7 5 9 16 18 15 19 15 5 10 12 13 14 15 7 9 13 9 9 9
6 4 7 13 13 17 30 34 27 14 19 22 20 19 19 27 13 8 1 8 8 5 8 7 8 2 14 5 6 16 18 13 6 11 11 11 12 9 6 10 11 11 15 12 9
Wind_Direction
341 340 337 338 336 331 332 331 329 326 320 321 321 320 319 320 318 280 233 221 188 169 171 265 195 229 248 254 266 272 350 279 278 301 55 131 74 339 54 46 63 351 356 116 143
342 342 340 338 335 332 331 331 327 324 323 319 319 319 317 325 312 263 245 144 149 155 212 225 234 227 248 261 264 154 170 254 267 23 39 100 119 172 76 18 318 158 115 129 91
326 330 330 329 331 331 332 330 321 320 323 320 317 320 317 326 297 261 152 147 157 167 258 297 271 257 254 263 266 257 214 267 293 77 64 347 78 182 79 206 180 190 128 127 111
317 317 320 320 323 326 328 324 320 317 319 316 316 321 318 265 284 214 165 155 163 171 248 282 280 272 262 262 268 265 272 291 296 50 48 58 89 64 48 52 77 122 141 137 116
306 310 308 315 319 319 322 321 319 316 313 311 318 326 345 296 253 173 160 176 173 161 216 233 249 240 247 268 296 256 241 283 308 302 115 104 84 121 87 95 62 90 75 115 105
305 301 306 307 316 321 318 317 315 313 309 307 313 328 220 263 251 161 181 160 226 187 228 238 242 235 274 300 311 300 309 309 297 283 84 105 146 80 183 128 149 113 100 114 122
306 301 298 302 310 314 315 311 308 306 305 303 304 304 248 242 271 240 290 208 216 207 229 249 250 313 334 319 321 313 289 289 279 204 145 130 35 21 202 136 160 126 143 125 134
299 303 301 301 305 304 304 301 299 297 295 285 287 273 253 256 244 261 263 263 219 228 238 262 342 353 334 291 314 304 312 272 273 201 143 101 140 78 190 143 143 156 163 146 166
289 294 305 303 304 306 303 300 294 290 279 260 265 210 263 290 234 237 235 236 225 240 256 270 336 235 298 265 309 265 254 259 288 182 148 121 212 237 174 172 156 164 168 164 181
287 290 301 304 301 304 308 302 285 280 244 205 250 272 260 252 227 218 218 243 220 202 243 242 269 227 295 151 238 262 269 291 123 252 120 155 204 252 191 150 167 177 173 167 165
279 290 294 300 303 307 331 332 6 68 210 214 191 242 297 291 315 186 196 228 235 189 201 216 191 235 235 229 237 258 274 282 192 239 179 198 189 206 214 105 179 187 171 178 171
272 283 294 306 302 308 308 260 257 95 290 246 247 251 253 262 281 288 165 193 210 225 184 238 226 228 239 252 253 262 268 295 42 223 186 204 213 204 211 216 188 165 169 174 158
260 267 285 305 313 295 229 248 297 325 281 278 238 232 231 222 246 254 190 200 200 228 211 211 230 219 238 251 254 273 243 286 238 207 256 287 332 180 231 216 189 171 177 177 165
255 240 260 298 318 268 253 314 304 204 282 264 230 242 218 207 243 226 241 189 220 221 232 238 231 247 257 247 216 277 268 286 322 2 254 142 286 183 196 204 196 185 183 186 185
246 231 223 225 313 304 2 327 322 48 298 255 205 175 176 176 148 208 215 224 201 224 192 234 253 235 250 246 236 244 220 229 282 315 344 299 75 294 176 191 195 192 193 194 186
239 218 207 263 251 268 307 309 305 105 243 263 156 169 140 189 232 342 179 206 209 219 243 251 234 244 241 244 218 252 178 259 300 221 312 268 216 259 184 194 195 187 193 185 183
235 228 201 222 233 299 336 314 180 215 208 231 189 160 187 190 210 225 204 198 205 206 230 251 255 252 255 231 226 256 137 314 336 346 236 346 356 247 214 203 188 198 191 191 178
229 230 215 220 257 316 325 241 231 212 241 333 102 303 181 193 206 212 219 230 218 215 186 228 253 237 235 206 199 227 163 152 216 208 314 359 267 276 204 210 247 194 197 189 190
221 222 202 222 238 144 241 207 227 202 199 242 279 299 213 188 203 196 220 230 233 211 214 204 240 262 235 226 169 249 183 169 107 45 52 257 273 307 251 221 137 130 136 193 196
202 204 196 202 187 174 240 235 240 229 283 288 287 279 312 215 192 196 191 207 229 208 207 252 251 237 254 217 222 189 168 132 76 122 225 252 257 266 325 320 9 148 182 214 164
190 212 174 184 160 205 222 227 233 247 265 295 262 265 285 295 321 283 212 230 230 203 202 212 236 284 176 191 207 188 223 223 148 168 192 206 240 206 193 221 313 263 158 164 145
182 211 184 156 200 204 228 210 242 241 224 250 304 277 267 285 301 298 263 303 241 209 207 204 184 227 252 252 244 235 198 183 145 246 195 154 252 157 183 248 242 272 198 166 159
185 139 191 166 207 214 234 235 252 265 263 260 246 244 261 271 287 297 331 324 338 313 225 204 223 244 267 245 280 227 213 203 211 154 211 161 251 233 218 237 242 227 342 218 163
148 170 179 201 227 216 215 233 234 244 235 256 275 264 268 279 266 270 298 309 357 317 348 215 200 214 225 183 183 253 248 232 224 162 220 202 219 278 260 214 230 112 12 31 266
163 215 185 198 209 219 213 216 225 229 233 216 253 251 242 253 279 258 263 355 333 324 334 298 219 233 218 196 226 217 226 232 235 225 206 224 210 239 229 243 201 120 6 305 227
165 183 188 231 199 206 225 225 228 208 217 214 232 247 247 247 248 273 166 131 102 341 327 326 283 186 244 199 219 250 269 233 246 223 227 229 241 241 246 181 185 175 197 217 203
149 226 176 197 191 195 215 226 228 214 255 234 225 235 247 241 259 301 80 134 133 88 330 314 344 174 224 210 249 266 238 254 235 253 247 212 222 235 224 188 194 212 214 198 183